www.pogodaiklimat.ru

Погода и климат >> Архив погоды >> Россия >> Хакасия >> Аскиз


ПОГОДА в Аскизе

  • Прогноз погоды в Аскизе
  • Монитор погоды в Аскизе

АРХИВ ПОГОДЫ в Аскизе

Время (UTC), дата Ветер
(напр.,м/с)
 
Видим.   Явления Облачность Т
(С)
Тd
(С)
f
(%)
Тe
(С)
Тes
(С)
Комфортность P
(гПа)
Po
(гПа)
Тmin
(С)
Tmax
(С)
R
(мм)
R24
(мм)
S
(см)
00 14.03 ЮЗ 4
{12}
н/о н/о +4.8 -7.1 42 +1 +1 1027.7 982.7 -1.4
03 14.03 Ю 6
{10}
н/о н/о +5.5 -6.1 43 +1 1030.3 985.3
06 14.03 Ю 6
{10}
н/о н/о +9.0 -6.4 33 +6 1028.4 984.0
09 14.03 ЮЗ 4
{10}
н/о н/о +12.4 -8.7 22 +11 1027.8 984.0
12 14.03 З 2
{10}
н/о н/о +9.4 -8.0 28 +9 +9 1026.8 982.5 +12.8
15 14.03 штиль 0 н/о н/о +3.0 -7.8 45 +3 1029.3 984.0
18 14.03 З 2 н/о н/о -0.8 -7.6 60 -4 1028.6 982.7
21 14.03 СЗ 1 н/о н/о -4.8 -8.5 75 -7 1027.9 981.3
00 15.03 З 1
{7}
н/о н/о -6.3 -9.0 81 -9 -9 1026.4 979.6 -6.4
03 15.03 Ю 1 н/о н/о +2.0 -6.1 55 +1 1025.3 980.0 -6.8
06 15.03 Ю 2 н/о н/о +10.2 -5.4 33 +9 1021.2 977.3
09 15.03 ЮВ 2 н/о н/о +15.1 -7.7 20 +15 1017.7 974.7
12 15.03 З 1
{4}
н/о н/о +9.8 -7.1 30 +10 +10 1016.4 972.6 +15.4
15 15.03 З 2 н/о н/о +1.1 -6.2 58 -2 1018.5 973.3
18 15.03 З 2 н/о н/о -0.9 -6.1 68 -4 1018.8 973.3
21 15.03 СЗ 1 н/о н/о -3.7 -7.5 75 -6 1019.3 973.3
00 16.03 З 1
{4}
н/о н/о -6.7 -8.7 86 -9 -9 1019.4 972.9 -6.8
03 16.03 СЗ 1 н/о н/о +2.8 -4.9 57 +2 1018.2 973.3
06 16.03 Ю 1 н/о н/о +13.3 -6.8 24 +14 1013.8 970.7
09 16.03 Ю 3 н/о н/о +16.3 -11.2 14 +16 1010.5 968.0
12 16.03 З 7-11
{14}
н/о н/о +10.5 -6.7 29 +8 +8 1011.4 968.0 +16.6
15 16.03 ЮЗ 7
{11}
н/о н/о +4.7 -1.1 66 -1 1017.8 973.3
18 16.03 ЮЗ 4
{13}
н/о н/о +2.4 -4.1 62 -2 1019.7 974.7
21 16.03 Ю 5
{10}
н/о н/о +0.9 -6.4 58 -4 1020.0 974.7
00 17.03 Ю 7-11
{12}
н/о н/о -1.1 -9.1 55 -8 -8 1019.4 973.8 -1.1
03 17.03 Ю 6
{12}
н/о н/о -0.5 -10.4 47 -6 1020.2 974.7 -1.9
06 17.03 Ю 7
{13}
н/о н/о +2.7 -12.0 33 -3 1019.7 974.7
09 17.03 З 3
{12}
н/о н/о +2.9 -11.8 33 -0 1018.2 973.3
12 17.03 З 3
{13}
н/о н/о -1.1 -12.1 43 -5 -5 1020.3 974.7 +3.3
15 17.03 ЮЗ 2 н/о н/о -2.9 -10.0 58 -6 1023.3 977.3
18 17.03 З 2 н/о н/о -3.7 -11.0 57 -7 1025.0 978.7
21 17.03 З 2 н/о н/о -5.1 -9.7 70 -9 1027.9 981.3
00 18.03 З 2 н/о н/о -6.3 -8.4 85 -11 -11 1029.2 982.3 -6.3 0.5 <0.5
03 18.03 З 1 н/о н/о -5.4 -9.0 76 -8 1032.2 985.3 -6.6
06 18.03 В 2 н/о н/о -5.1 -7.4 84 -9 1033.6 986.7
09 18.03 ЮЗ 2 н/о н/о -2.0 -10.3 53 -5 1033.0 986.7
12 18.03 ЮЗ 1
{5}
н/о н/о -3.2 -10.7 56 -5 -5 1033.4 986.8 -1.2 0.8
15 18.03 З 2 н/о н/о -7.7 -10.7 79 -12 1036.8 989.3
18 18.03 З 2 н/о н/о -10.2 -11.9 87 -15 1037.2 989.3
21 18.03 З 2 н/о н/о -11.4 -13.7 83 -16 1037.5 989.3
00 19.03 З 2
{4}
н/о н/о -12.6 -15.1 82 -17 -17 1035.6 987.3 -12.6
03 19.03 СЗ 1 н/о н/о -7.3 -11.5 72 -10 1035.3 988.0 -12.6
06 19.03 Ю 1 н/о н/о -0.3 -11.9 41 -1 1031.3 985.3
09 19.03 ЮВ 1 н/о н/о -0.3 -11.9 41 -1 1029.9 984.0
12 19.03 В 1
{6}
н/о н/о -1.0 -11.9 43 -2 -2 1028.4 982.4 +2.1
15 19.03 СЗ 1 н/о н/о -3.5 -10.1 60 -5 1030.5 984.0
18 19.03 СЗ 2 н/о н/о -5.0 -10.0 68 -9 1032.1 985.3
21 19.03 СЗ 1 н/о н/о -7.9 -11.1 78 -10 1032.6 985.3
00 20.03 штиль 0
{3}
н/о н/о -7.9 -10.9 79 -9 -9 1033.5 986.1 -8.7
03 20.03 З 1 н/о н/о -2.1 -9.5 57 -4 1034.4 988.0
06 20.03 З 2 н/о н/о +1.0 -8.8 48 -2 1033.9 988.0
09 20.03 СВ 3 н/о н/о +2.4 -8.6 44 -1 1033.6 988.0
12 20.03 В 2
{6}
н/о н/о -0.7 -9.4 52 -4 -4 1033.6 987.4 +3.1
15 20.03 штиль 0 н/о н/о -4.4 -9.4 68 -5 1036.2 989.3
18 20.03 СЗ 2 н/о н/о -7.9 -10.6 81 -12 1036.8 989.3

 

Местоположение метеостанции Аскиз (Хакасия, Россия): широта 53.13 долгота 90.48 высота над уровнем моря 366 м.

В архиве по умолчанию представлена погода в Аскизе за последнюю неделю. Архивные данные за месяц целиком и за предыдущие месяцы, начиная с января 2011 года, Вы можете получить, выбрав интересующий диапазон дат из раскрывающегося списка и нажав кнопку "Ввод!".


*Определитесь, кто Вы:
робот инопланетянин человек

Внимание! Время в таблицах - всемирное. Для получения местного времени необходимо прибавить поправку, которая равна 7 ч.

Смотрите также архив погоды в соседних городах и на ближайших метеорологических станциях:

Погода в Бее (Хакасия, Россия) (31 км)
Погода в Таштыпе (Хакасия, Россия) (54 км)
Погода в Саяногорске (Хакасия, Россия) (64 км)
Погода в Уйбате (Хакасия, Россия) (66 км)
Погода в Карловом Створе (Хакасия, Россия) (68 км)
Погода в Черемушках (Хакасия, Россия) (69 км)
Погода в Мантуре (Хакасия, Россия) (86 км)
Погода в Хакасской (Хакасия, Россия) (90 км)
Погода в Неожиданном (Хакасия, Россия) (95 км)
Погода в Кантегире (Хакасия, Россия) (97 км)

Пояснения к столбцам:

Ветер - указаны скорость ветра в м/с - средняя за 10 мин, порывы в срок и между сроками (в фигурных скобках) и направление, откуда дует ветер: С - северный, СВ - северо-восточный, В - восточный, ЮВ - юго-восточный, Ю - южный, ЮЗ - юго-западный, З - западный, СЗ - северо-западный.
Видимость - горизонтальная дальность видимости в метрах или километрах. При видимости от 1 до 10 км при отсутствии осадков обычно наблюдается дымка, при ухудшении видимости до 1 км и менее - туман. В сухую погоду видимость может ухудшаться дымом, пылью или мглою.
Явления - указаны атмосферные явления, наблюдавшиеся в срок или в последний час перед сроком; фигурными скобками обозначены явления, наблюдавшиеся между сроками (за 1-3 часа до срока); квадратными скобками обозначены град или гололедные отложения с указанием их диаметра в мм.
Облачность - указаны через наклонную черту общая и нижняя облачность в баллах и высота нижней границы облаков в метрах; квадратными скобками обозначены формы облаков: Ci - перистые, Cs - перисто-слоистые, Cc - перисто-кучевые, Ac - высококучевые, As - высокослоистые, Sc - слоисто-кучевые, Ns - слоисто-дождевые, Cu - кучевые, Cb - кучево-дождевые. Подробнее классификацию облаков см. в Атласе облаков (PDF).
T - Температура воздуха - температура, измеренная на высоте 2 м над землей.
Td - Температура точки росы - температура, при понижении до которой содержащийся в воздухе водяной пар достигнет насыщения.
f - Относительная влажность воздуха - влажноcть воздуха, измеренная на высоте 2 м над землей.
Te - Эффективная температура - температура, которую ощущает одетый по сезону человек в тени. Характеристика душности погоды. При расчете учитывается влияние влажности воздуха и скорости ветра на теплоощущения человека.
Tes - Эффективная температура на солнце - температура, которую ощущает человек, с поправкой на солнечный нагрев. Характеристика знойности погоды. Зависит от высоты солнца над горизонтом, облачности и скорости ветра. Ночью, в пасмурную погоду, а также при ветре 12 м/с и более поправка равна нулю.
P - Атмосферное давление - приведенное к уровню моря атмосферное давление.
Po - Атмосферное давление - измеренное на уровне метеостанции атмосферное давление.
Tmin - Минимальная температура - минимум температуры воздуха на высоте 2 м над землей.
Tmax - Максимальная температура - максимум температуры воздуха на высоте 2 м над землей.
R - Количество осадков - Количество выпавших осадков за период времени, мм. При наведении курсора мыши на число - период времени, за который выпало указанное количество осадков.
R24 - Количество осадков - Количество выпавших осадков за 24 часа, мм.
S - Снежный покров - Высота снежного покрова, см. При наведении курсора мыши на число - состояние снежного покрова и степень покрытия местности в баллах.